Buffalo, MN

4:29 PM CDT on August 20, 2017 (GMT -0500)
Buffalo

Weather History for KCFE - November, 2012

Change the Weather History Date:

Tuesday, November 6, 2012

  Actual Average (KMIC) Record (KMIC)
Temperature  
Mean Temperature 38 °F -  
Max Temperature 41 °F 44 °F 70 °F (2016)
Min Temperature 36 °F 29 °F 2 °F (1991)
Degree Days  
Heating Degree Days 26    
Moisture  
Dew Point 35 °F    
Average Humidity 85    
Maximum Humidity 96    
Minimum Humidity 74    
Precipitation  
Precipitation 0.15 in - - ()
Sea Level Pressure  
Sea Level Pressure 29.85 in    
Wind  
Wind Speed 10 mph (West)    
Max Wind Speed 15 mph    
Max Gust Speed 24 mph    
Visibility 9 miles    
Events Rain    
Averages and records for this station are not official NWS values.
T = Trace of Precipitation, MM = Missing Value Source: NWS Daily Summary

Daily Weather History Graph

Daily Weather History Graph

Search for Another Location

Airport or City:

Trip Planner

Search our weather history database for the weather conditions in past years. The results will help you decide how hot, cold, wet, or windy it might be!

Date:

Astronomy

Nov. 06, 2012 Rise Set
Actual Time 7:01 AM CST 4:55 PM CST
Civil Twilight 6:30 AM CST 5:26 PM CST
Nautical Twilight 5:55 AM CST 6:01 PM CST
Astronomical Twilight 5:21 AM CST 6:36 PM CST
Moon 11:39 PM CST (11/6) 12:51 PM CST (11/6)
Length of Visible Light 10h 56m
Length of Day
9h 53m
Waning Gibbous, 53% of the Moon is Illuminated
Nov 6
Waning Gibbous
Nov 6
Last Quarter
Nov 13
New
Nov 20
First Quarter
Nov 28
Full

Hourly Weather History & Observations

Time (CST) Temp. Windchill Dew Point Humidity Pressure Visibility Wind Dir Wind Speed Gust Speed Precip Events Conditions
12:13 AM 39.2 °F 33.6 °F 37.4 °F 93% 29.92 in 7.0 mi SSW 8.1 mph - N/A Rain Light Rain
12:33 AM 39.2 °F 33.6 °F 37.2 °F 93% 29.91 in 7.0 mi South 8.1 mph - 0.01 in Rain Light Rain
12:53 AM 38.3 °F 30.5 °F 36.1 °F 92% 29.90 in 5.0 mi South 12.7 mph 17.3 mph 0.03 in Rain Rain
1:13 AM 37.8 °F 30.2 °F 35.6 °F 92% 29.89 in 7.0 mi SSW 11.5 mph 16.1 mph N/A Rain Light Rain
1:33 AM 37.8 °F 33.3 °F 36.0 °F 93% 29.88 in 7.0 mi South 5.8 mph - 0.01 in Rain Light Rain
1:53 AM 37.4 °F 29.3 °F 35.4 °F 93% 29.88 in 5.0 mi SSW 12.7 mph 20.7 mph 0.03 in Rain Rain
2:13 AM 36.9 °F 29.6 °F 34.7 °F 92% 29.87 in 5.0 mi South 10.4 mph 18.4 mph 0.02 in Rain Rain
2:33 AM 36.5 °F 30.3 °F 34.7 °F 93% 29.84 in 5.0 mi South 8.1 mph - 0.04 in Rain Light Rain
2:53 AM 37.2 °F 31.9 °F 35.6 °F 94% 29.83 in 7.0 mi South 6.9 mph - 0.06 in Rain Rain
3:13 AM 37.4 °F 32.1 °F 36.0 °F 95% 29.81 in 7.0 mi SSE 6.9 mph - 0.01 in Rain Light Rain
3:33 AM 38.3 °F 33.2 °F 36.9 °F 95% 29.80 in 7.0 mi South 6.9 mph - 0.01 in Rain Rain
3:53 AM 39.2 °F 33.0 °F 37.8 °F 95% 29.79 in 5.0 mi South 9.2 mph 17.3 mph 0.01 in Rain Light Rain
4:13 AM 39.2 °F 32.5 °F 37.6 °F 94% 29.79 in 5.0 mi South 10.4 mph - 0.01 in Rain Light Rain
4:33 AM 39.4 °F 32.7 °F 37.8 °F 94% 29.79 in 5.0 mi SSW 10.4 mph 16.1 mph 0.01 in   Drizzle
4:53 AM 39.2 °F 31.6 °F 37.4 °F 93% 29.78 in 5.0 mi SSW 12.7 mph 17.3 mph 0.02 in   Drizzle
5:13 AM 39.2 °F 33.0 °F 37.4 °F 93% 29.78 in 4.0 mi SSW 9.2 mph - N/A   Overcast
5:53 AM 38.5 °F 32.7 °F 37.4 °F 96% 29.76 in 5.0 mi SSW 8.1 mph - N/A   Overcast
6:13 AM 38.7 °F 32.9 °F 37.4 °F 95% 29.76 in 5.0 mi SW 8.1 mph - N/A   Overcast
6:33 AM 39.2 °F 35.0 °F 37.8 °F 95% 29.76 in 5.0 mi SW 5.8 mph - N/A   Overcast
6:53 AM 39.2 °F 33.6 °F 37.8 °F 95% 29.76 in 7.0 mi WSW 8.1 mph - N/A   Overcast
7:13 AM 39.4 °F 33.2 °F 37.4 °F 93% 29.77 in 7.0 mi West 9.2 mph - N/A   Overcast
7:33 AM 39.7 °F 34.3 °F 37.4 °F 91% 29.78 in 10.0 mi West 8.1 mph - N/A   Overcast
7:53 AM 39.9 °F 35.1 °F 37.6 °F 91% 29.79 in 10.0 mi West 6.9 mph - N/A   Overcast
8:13 AM 40.3 °F 34.4 °F 37.2 °F 89% 29.79 in 10.0 mi West 9.2 mph - N/A   Overcast
8:33 AM 40.5 °F 34.1 °F 36.7 °F 86% 29.79 in 10.0 mi West 10.4 mph - N/A   Scattered Clouds
8:53 AM 41.0 °F 33.9 °F 36.7 °F 85% 29.79 in 10.0 mi West 12.7 mph 21.9 mph N/A   Mostly Cloudy
9:13 AM 40.1 °F 32.4 °F 35.6 °F 84% 29.80 in 10.0 mi West 13.8 mph 21.9 mph N/A   Overcast
9:33 AM 40.1 °F 32.7 °F 34.9 °F 82% 29.81 in 10.0 mi West 12.7 mph 19.6 mph N/A   Overcast
9:53 AM 40.3 °F 33.0 °F 34.7 °F 80% 29.81 in 10.0 mi WNW 12.7 mph 19.6 mph N/A   Overcast
10:13 AM 41.0 °F 34.7 °F 35.1 °F 79% 29.81 in 10.0 mi West 10.4 mph 16.1 mph N/A   Overcast
10:33 AM 41.4 °F 35.2 °F 34.7 °F 77% 29.81 in 10.0 mi WNW 10.4 mph - N/A   Overcast
10:53 AM 41.9 °F 34.6 °F 34.2 °F 74% 29.81 in 10.0 mi West 13.8 mph 17.3 mph N/A   Overcast
11:13 AM 41.2 °F 34.5 °F 34.9 °F 78% 29.81 in 10.0 mi West 11.5 mph - N/A   Overcast
11:33 AM 41.2 °F 34.5 °F 35.6 °F 81% 29.81 in 10.0 mi West 11.5 mph 16.1 mph N/A   Overcast
11:53 AM 41.7 °F 34.4 °F 35.1 °F 77% 29.81 in 10.0 mi West 13.8 mph 19.6 mph N/A   Overcast
12:13 PM 41.5 °F 35.4 °F 35.2 °F 78% 29.81 in 10.0 mi WNW 10.4 mph 17.3 mph N/A   Overcast
12:33 PM 41.9 °F 34.6 °F 35.4 °F 78% 29.81 in 10.0 mi West 13.8 mph 20.7 mph N/A   Overcast
12:53 PM 41.9 °F 34.6 °F 35.2 °F 77% 29.80 in 10.0 mi WNW 13.8 mph 17.3 mph N/A   Overcast
1:13 PM 41.9 °F 34.6 °F 35.4 °F 78% 29.81 in 10.0 mi West 13.8 mph 17.3 mph N/A   Overcast
1:33 PM 41.2 °F 36.0 °F 36.1 °F 82% 29.81 in 10.0 mi West 8.1 mph - N/A   Light Drizzle
1:53 PM 41.2 °F 34.5 °F 36.5 °F 83% 29.81 in 7.0 mi West 11.5 mph 17.3 mph N/A Rain Light Rain
2:13 PM 41.0 °F 34.3 °F 36.7 °F 85% 29.81 in 7.0 mi West 11.5 mph 18.4 mph N/A Rain Light Rain
2:33 PM 41.0 °F 33.5 °F 36.7 °F 85% 29.81 in 10.0 mi West 13.8 mph 18.4 mph N/A   Light Drizzle
2:53 PM 41.0 °F 34.3 °F 36.3 °F 83% 29.81 in 10.0 mi West 11.5 mph 17.3 mph N/A   Overcast
3:13 PM 39.9 °F 33.4 °F 36.5 °F 88% 29.82 in 7.0 mi WNW 10.4 mph - N/A Rain Light Rain
3:33 PM 40.5 °F 33.6 °F 36.5 °F 86% 29.83 in 10.0 mi WNW 11.5 mph 16.1 mph N/A   Drizzle
4:13 PM 41.0 °F 33.9 °F 34.9 °F 79% 29.84 in 10.0 mi WNW 12.7 mph 24.2 mph N/A   Overcast
4:33 PM 41.0 °F 33.1 °F 34.2 °F 77% 29.85 in 10.0 mi WNW 15.0 mph 19.6 mph N/A   Overcast
4:53 PM 40.8 °F 33.3 °F 34.5 °F 78% 29.86 in 10.0 mi NW 13.8 mph 19.6 mph N/A   Overcast
5:13 PM 40.3 °F 33.0 °F 34.3 °F 79% 29.87 in 10.0 mi NW 12.7 mph 19.6 mph N/A   Drizzle
5:34 PM 40.1 °F 33.6 °F 34.2 °F 79% 29.88 in 10.0 mi NW 10.4 mph - N/A   Overcast
5:53 PM 39.7 °F 32.7 °F 34.0 °F 80% 29.89 in 10.0 mi NW 11.5 mph 21.9 mph N/A   Overcast
6:13 PM 39.4 °F 32.7 °F 34.2 °F 82% 29.89 in 10.0 mi NW 10.4 mph 18.4 mph N/A   Overcast
6:34 PM 39.2 °F 33.0 °F 34.3 °F 83% 29.90 in 10.0 mi NW 9.2 mph - N/A   Overcast
6:53 PM 39.2 °F 31.6 °F 34.2 °F 82% 29.91 in 10.0 mi NW 12.7 mph 17.3 mph N/A   Overcast
7:13 PM 39.2 °F 31.6 °F 34.2 °F 82% 29.91 in 10.0 mi NW 12.7 mph 17.3 mph N/A   Overcast
7:34 PM 38.7 °F 32.4 °F 34.3 °F 84% 29.92 in 10.0 mi NW 9.2 mph - N/A   Overcast
7:53 PM 38.5 °F 33.4 °F 34.7 °F 86% 29.93 in 10.0 mi NW 6.9 mph - N/A   Overcast
8:13 PM 38.7 °F 33.6 °F 34.7 °F 86% 29.93 in 10.0 mi NW 6.9 mph - N/A   Overcast
8:32 PM 39.0 °F 32.3 °F 34.0 °F 82% 29.94 in 10.0 mi NW 10.4 mph 16.1 mph N/A   Overcast
8:53 PM 39.2 °F 33.0 °F 33.1 °F 79% 29.94 in 10.0 mi NW 9.2 mph - N/A   Overcast
9:13 PM 38.8 °F 32.1 °F 32.9 °F 79% 29.95 in 10.0 mi NW 10.4 mph - N/A   Overcast
9:33 PM 38.5 °F 32.7 °F 32.9 °F 80% 29.95 in 10.0 mi NW 8.1 mph 16.1 mph N/A   Overcast
9:53 PM 38.3 °F 32.5 °F 32.9 °F 81% 29.96 in 10.0 mi NW 8.1 mph - N/A   Overcast
10:13 PM 38.3 °F 31.9 °F 32.9 °F 81% 29.96 in 10.0 mi NW 9.2 mph - N/A   Overcast
10:33 PM 38.3 °F 32.5 °F 32.9 °F 81% 29.97 in 10.0 mi NW 8.1 mph - N/A   Overcast
10:53 PM 38.3 °F 31.9 °F 33.3 °F 82% 29.98 in 10.0 mi NNW 9.2 mph - N/A   Overcast
11:13 PM 38.3 °F 31.9 °F 33.6 °F 83% 29.98 in 10.0 mi NW 9.2 mph - N/A   Overcast
11:33 PM 38.3 °F 31.4 °F 33.4 °F 83% 29.99 in 10.0 mi NW 10.4 mph - N/A   Overcast
11:53 PM 38.3 °F 33.2 °F 33.3 °F 82% 29.99 in 10.0 mi NW 6.9 mph - N/A   Overcast